Showing default

QIANFAN-149, 69108

Orbit data source: Space-Track

QIANFAN-149, 69108 is a Chinese payload satellite in LEO that was launched on Sun, 17 May 2026 UTC via a CHANG ZHENG 8 launch vehicle from the Wenchang Satellite Launch Center (WSC). Payload-class satellites include a variety of spacecraft equipped with specific instruments for various scientific and technological missions. These include communications satellites like Starlink; space stations such as the ISS; scientific satellites like the Hubble; Earth observation satellites from companies like Planet Labs, Umbra, and HawkEye 360; GPS; miniature CubeSats for education and research; and military/defense satellites.

Loading next visibility...
Identifier
69108, 2026-108E
Orbit
LEO
Country
Flag of CNCN / PRC
Related business
Manufacturer
SECM
Mission
Operational spacecraft
Bus & Motor
QIANFAN, Unknown motor
Mass
267 kg wet, ~267 kg dry
Launch date (UTC)
2026-05-17 (1 month ago)
Launch vehicle
CHANG ZHENG 8
Launch site
Wenchang Satellite Launch Center (WSC)
Object type
Payload
Rocket body
Debris
Shape & HBR
Unknown shape, 14.5 m
Radar Cross Section
Large (>1 m²)

Expand to show TLE details & history
Last TLE update: 13 hours ago

TLE from 13 hours ago
0 QIANFAN-149
1 69108U 26108E   26171.28483503  .00000050  00000-0  25889-4 0  9992
2 69108  89.0106  21.8847 0017370  99.2134 261.1010 13.97773674  4779
Epoch: 2026-06-20T06:50Z
TLE epoch observation values (Epoch: 2026-06-20T06:50:09.746Z)
Latitude
0.00005°
Longitude
10.84243°
Altitude
906.514 km
Speed
7.398 km/s
True Right ascension
01h 27m 32s
True Declination
0° 00' 00"
Sunlit
Object was in daylight at epoch
Visualization orbit readout
Latitude
Unknown
Longitude
Unknown
Altitude
Unknown
Speed
Unknown
Apparent Right ascension
Unknown
Apparent Declination
Unknown
Sunlit
N/A
Visualization observer readout
Local Sidereal Time
07:14:59
Azimuth
Unknown
Elevation
Unknown
Doppler factor
Unknown
Orbital elements
Apogee altitude
911.137 km
Perigee altitude
885.858 km
Semi-major axis
7,276.635 km
Eccentricity
0.00174
Inclination
89.0106°
RAAN
21.8847°
Arg. of periapsis
99.2134°
True anomaly
260.90442°
Mean anomaly
261.101°
Eccentric anomaly
261.0027°
Mean motion
3.49661 °/min
Orbital period
102.96 mins
BSTAR
0.000025889
Loading maneuver chart data...
Computing Atmospheric mass density...
Loading historical data...
Loading historical data...
Loading historical data...
Loading historical data...
Loading historical data...
Loading historical data...
Loading historical data...

Documentation

Showing up to 5 results
|